Accueil
METAR-TAF:

METAR-TAF

Aéroports :

Aérodrome de Melun-Villaroche

Melun, France

latitude: 48-37N, longitude: 002-41E, altitude: 95 m

Observation

Le bulletin a été fait il y a 39 minutes, à 22:00 UTC
Vent 4 kt de sud
Température 10°C
Humidité 100%
Pression 1020 hPa
Visibilité: 5000 m
brume

METAR: LFPM 122200Z AUTO 17004KT 5000 BR NSC 10/10 Q1020

Heure: 23:39 (22:39 UTC)


TAF: absent

Observations et prévisions météorologiques de plus de 4000 aéroports (messages METAR et TAF).

Les stations disponibles sont représentées par des disques jaunes et rouges sur la carte.

Passer la souris dessus pour voir le nom de la station.

Cliquer dessus pour voir les observations et prévisions météorologiques.

Pour changer de carte: cliquez sur les boutons verts avec une croix noire pour zoomer, sur le bouton vert avec un tiret pour effectuer un zoom arrière, ou sur les flèches vertes pour les cartes adjacentes.


METAR-TAF: